Location: Caltech
(34.1382°N, 118.1253°W)
Time: 03:39:37
(UTC-07:00)

Aureole 3 Rocket - Visible Passes

Search period start: 24 July 2014 00:00
Search period end: 03 August 2014 00:00
Orbit: 399 x 1759 km, 82.5° (Epoch: 22 July)

Date Brightness Start Highest point End Pass type
(mag) Time Alt. Az. Time Alt. Az. Time Alt. Az.
24 Jul 3.5 22:00:41 35° NE 22:00:41 35° NE 22:03:00 10° NNE visible
25 Jul 4.6 21:09:33 12° ENE 21:09:33 12° ENE 21:10:20 10° ENE visible
25 Jul 5.2 22:56:23 15° WNW 22:56:23 15° WNW 22:58:31 10° NW visible
26 Jul 2.7 22:05:12 65° NW 22:05:12 65° NW 22:08:37 10° N visible
27 Jul 3.7 21:13:59 23° E 21:14:06 23° E 21:17:05 10° NNE visible
28 Jul 3.9 22:09:33 30° WSW 22:10:25 35° WNW 22:14:01 10° N visible
29 Jul 2.8 21:18:14 33° SE 21:19:18 46° E 21:23:08 10° NNE visible
30 Jul 4.6 20:27:22 10° ESE 20:28:49 12° E 20:30:22 10° ENE visible
30 Jul 5.1 22:13:40 12° WSW 22:16:01 21° WNW 22:19:11 10° NNW visible
31 Jul 2.6 21:22:13 18° S 21:24:37 87° W 21:28:55 10° N visible
01 Aug 4.0 20:31:07 10° SE 20:33:54 23° E 20:37:17 10° NNE visible
01 Aug 5.7 22:19:52 10° W 22:21:46 13° WNW 22:23:54 10° NW visible
02 Aug 3.8 21:26:44 10° SSW 21:30:05 47° WNW 21:34:30 10° N visible
